Theta_e
313 314 315 319 320 323 324 322 328 328 327 323 320 322 320 320 321 321 320 320 320 319 319 319 319 319 319 320 320 321 322 321 322 327 325 324 326 325 331 336 336 338 338 337 337 336 335 335 336 338 337 335 335 336 335 335 334 333 333 331 330 329 329 328 327 323 319 318 320 325 329 331 332 332 333 331 330 329 329 329 331 330 330 333 333 331 330 329 327 324 322 321 321 321 321 320 320
315 317 318 321 322 325 325 324 331 329 325 320 318 321 318 320 321 320 321 320 320 319 319 319 319 320 319 320 321 323 326 326 324 326 327 326 325 323 330 337 337 338 338 338 337 337 337 336 337 338 338 336 336 335 335 334 332 332 331 330 329 328 328 328 327 323 319 318 319 321 324 328 331 332 333 332 332 331 330 329 330 331 332 333 333 332 331 330 329 328 327 326 324 323 323 321 320
317 319 321 323 323 323 326 329 330 327 322 318 316 319 319 319 320 319 320 318 319 319 319 320 319 320 319 320 320 323 326 326 325 325 326 326 323 322 331 338 339 338 339 340 337 337 337 337 337 337 338 337 336 336 334 333 332 332 332 330 328 327 327 327 326 323 319 318 319 320 321 325 328 330 331 332 331 331 330 328 328 330 332 333 332 331 329 329 328 328 326 323 320 318 318 318 319
318 320 323 323 326 325 329 331 333 331 320 319 318 317 319 320 320 319 318 318 319 319 319 319 318 319 319 320 319 321 323 324 325 324 321 321 320 322 332 339 340 338 339 341 337 337 337 337 337 336 337 338 337 336 335 334 333 333 333 331 329 327 326 327 326 323 319 318 319 320 322 325 327 328 329 329 329 329 330 328 326 328 331 332 331 330 328 327 327 325 321 317 313 310 310 311 312
319 322 322 321 327 326 329 328 332 331 319 323 321 315 320 320 320 318 317 318 318 319 319 318 318 318 319 320 319 321 322 322 323 321 318 319 319 322 331 337 340 339 338 339 336 337 338 336 337 336 335 337 337 337 337 336 335 334 333 333 331 328 326 326 326 324 320 318 320 322 323 325 326 326 326 327 327 327 329 328 326 327 330 331 329 328 327 325 322 318 315 314 310 307 307 308 308
319 321 321 321 325 323 331 328 323 323 318 324 321 315 319 318 318 317 316 317 317 319 318 318 318 317 322 322 320 322 322 321 321 318 318 319 318 321 326 331 338 341 338 338 337 338 338 336 337 336 335 336 337 337 337 337 336 335 334 334 333 330 327 326 326 324 320 319 320 322 323 324 325 326 326 327 327 328 329 328 326 325 326 327 327 326 325 320 316 314 315 315 310 306 307 308 308
321 322 321 324 326 323 333 327 319 321 319 320 319 317 318 316 317 316 316 317 317 317 317 318 317 318 322 322 321 322 320 320 321 318 318 318 319 322 324 329 337 340 338 338 339 338 337 337 336 336 336 337 337 336 336 337 336 336 336 335 334 333 329 326 326 325 321 320 319 321 323 325 327 327 326 327 329 329 329 328 326 325 324 325 325 325 323 320 317 316 317 316 310 306 307 308 308
321 322 321 328 331 329 331 324 320 324 320 317 318 319 317 316 317 316 316 317 317 316 316 317 317 320 319 320 321 321 318 317 319 317 318 318 319 323 325 329 334 338 339 339 339 338 336 337 336 335 336 337 337 336 336 336 336 335 336 335 334 333 331 327 327 327 325 322 320 321 322 326 328 328 326 327 329 330 330 329 327 327 326 326 326 326 326 325 322 319 319 318 312 305 307 308 309
320 322 322 328 331 329 327 321 320 321 320 318 317 318 318 318 317 316 316 316 318 316 317 317 317 322 319 318 321 320 317 315 317 317 317 318 320 323 324 327 328 331 337 340 339 338 336 335 335 334 335 336 336 336 336 336 335 336 336 335 334 332 331 329 328 329 330 328 325 321 323 328 329 329 328 328 329 330 330 329 329 328 328 327 328 328 328 326 323 321 320 319 314 306 306 308 308
321 321 320 329 330 324 322 319 320 320 319 319 316 318 318 318 318 316 316 316 317 316 317 318 318 320 318 318 319 318 316 315 315 316 317 317 319 321 322 324 324 325 331 336 338 337 334 332 333 334 334 335 336 336 336 336 335 336 336 335 334 333 331 329 328 328 330 330 329 325 325 329 330 330 330 329 329 330 330 329 329 329 329 328 328 327 325 323 322 320 319 319 315 306 305 307 307
322 320 319 329 329 322 321 321 320 320 319 318 317 317 318 318 318 316 317 317 317 317 317 317 318 317 317 317 317 315 314 314 315 315 315 317 317 318 320 323 324 324 325 327 330 331 329 328 330 332 333 335 336 336 336 336 336 336 336 335 334 333 331 329 328 327 328 329 330 328 328 330 331 331 330 329 329 329 330 329 328 327 328 327 325 324 323 322 320 319 317 318 315 306 304 305 306
322 323 325 326 324 322 323 323 321 320 319 319 317 317 318 318 318 316 317 317 316 317 316 316 316 317 317 316 316 313 312 313 314 314 314 315 316 317 317 320 323 323 321 321 322 323 323 324 328 330 332 334 335 335 335 336 336 336 336 336 335 334 332 330 328 327 327 328 328 328 329 330 331 331 329 329 328 328 329 328 326 325 326 326 324 323 323 321 319 318 317 317 314 307 304 303 304
320 323 330 324 323 327 324 322 321 322 319 318 318 317 318 317 317 316 316 317 316 317 316 316 316 317 317 316 315 313 313 313 313 313 313 314 314 315 316 317 320 322 320 319 319 319 319 321 326 330 332 333 335 334 334 335 336 336 335 336 336 335 334 332 329 327 327 327 327 327 328 330 330 330 329 328 327 328 327 326 324 324 325 325 324 324 324 321 318 317 317 317 314 308 304 303 303
318 318 327 324 324 327 325 323 322 324 319 317 318 316 318 317 317 317 317 317 316 317 316 316 316 317 317 315 315 314 313 313 313 313 313 313 314 314 315 315 317 319 320 320 319 318 318 318 323 329 332 332 333 334 334 334 336 336 335 336 336 335 334 333 330 328 327 327 326 326 327 329 328 328 328 327 326 326 325 324 325 326 326 326 326 326 324 320 318 319 319 317 314 310 306 303 303
316 318 325 325 323 321 323 325 324 326 319 317 318 316 317 317 317 317 317 318 316 316 316 316 315 317 317 316 316 314 313 313 313 313 313 314 313 314 314 315 315 316 318 319 319 318 318 318 320 326 331 332 332 333 334 334 334 335 335 335 336 335 335 334 331 329 327 328 327 327 328 328 327 327 327 327 327 327 326 325 326 327 327 327 328 327 323 320 320 321 320 317 314 312 308 305 303
314 319 327 324 321 320 320 322 324 324 318 317 317 316 317 316 317 317 317 317 316 316 316 316 315 316 316 315 315 314 313 313 313 313 315 316 315 314 314 315 315 315 315 316 317 317 317 318 318 321 328 331 331 331 332 333 333 334 334 334 335 335 335 335 333 331 328 327 327 327 328 327 326 326 326 326 327 327 326 327 327 327 327 328 329 326 322 321 321 322 321 318 316 313 310 308 305
316 322 329 324 320 320 318 320 324 323 319 317 316 317 317 316 317 317 316 316 316 316 316 316 315 315 314 314 314 314 313 313 313 314 316 318 317 315 314 315 315 315 315 314 315 316 315 316 317 318 322 326 330 330 330 331 331 332 333 333 335 335 335 335 335 333 329 327 327 327 327 327 327 326 327 326 326 327 327 327 327 327 327 328 330 327 322 321 321 322 321 319 319 316 313 311 309
321 329 329 322 319 318 317 320 322 321 319 317 316 316 317 317 317 316 316 316 315 315 314 314 314 314 313 313 313 313 313 312 313 314 316 318 318 317 315 314 314 315 315 315 315 315 315 315 316 317 319 320 326 329 330 331 331 331 332 332 333 334 334 334 335 334 331 329 327 327 327 327 327 326 328 329 328 328 328 328 327 328 328 328 329 327 324 323 321 321 321 319 319 318 317 316 313
321 330 327 320 319 318 316 318 317 318 318 316 317 316 317 317 317 317 316 314 315 316 314 313 314 314 313 312 312 313 312 312 313 314 316 316 317 317 316 314 313 314 314 315 315 315 315 315 315 316 318 318 322 327 330 332 332 332 333 332 332 332 333 333 334 334 334 331 328 328 327 327 328 327 328 330 331 330 329 328 328 328 328 328 329 327 324 324 323 322 322 320 319 317 318 320 319
318 326 327 318 317 316 315 317 316 317 317 316 317 316 316 317 316 316 316 314 315 316 314 313 314 314 313 312 312 312 312 312 312 313 314 315 316 315 315 314 313 313 314 314 314 315 315 315 315 315 317 318 320 325 331 332 332 333 334 333 333 332 331 331 332 333 333 332 330 329 329 328 329 329 329 330 331 331 329 327 328 329 328 329 329 327 325 325 324 324 324 323 321 319 319 321 321
318 323 324 316 315 316 316 317 316 317 316 316 317 316 316 316 316 316 315 316 316 315 314 315 315 315 314 313 312 312 312 312 312 312 313 313 314 314 313 313 313 313 313 313 313 314 314 314 314 315 316 318 320 325 330 332 332 332 332 332 332 331 331 331 331 331 332 332 332 331 330 330 330 331 331 331 331 331 330 328 328 329 329 330 330 328 326 326 326 325 325 323 323 321 320 322 321
318 319 318 316 316 317 317 317 316 316 316 316 316 315 316 316 316 316 315 318 318 315 314 315 315 315 314 313 312 312 312 312 312 312 312 312 313 313 313 313 313 313 313 313 313 313 313 313 314 314 315 318 321 324 328 331 331 330 331 331 330 331 333 332 332 331 332 333 333 333 332 332 332 332 332 332 332 332 332 331 330 329 329 330 330 329 328 327 327 326 325 324 323 322 321 321 320
320 318 316 317 316 317 317 317 316 315 316 316 315 316 316 315 316 316 315 316 317 315 314 314 314 314 313 313 312 311 312 312 312 312 312 312 312 313 313 313 313 313 313 313 313 313 313 312 313 313 314 317 320 323 327 330 330 329 331 331 330 331 332 332 332 332 333 333 333 334 333 333 333 332 332 332 332 332 332 332 331 331 330 331 330 329 329 329 328 327 326 324 324 323 322 321 320
321 319 316 317 317 317 317 317 316 315 315 316 315 316 316 316 316 315 315 315 316 315 314 312 312 312 312 312 312 311 312 312 312 312 312 313 313 313 313 313 313 313 313 313 313 313 313 313 313 313 313 315 320 324 326 328 328 328 330 331 330 331 332 332 332 333 333 333 333 334 333 333 332 332 332 332 332 332 331 331 331 330 330 330 329 329 329 329 328 328 327 325 325 323 323 322 320
319 319 317 317 317 317 317 317 317 316 315 315 315 315 315 316 315 315 315 315 315 314 313 311 311 311 311 311 311 311 312 312 312 312 312 312 312 313 313 313 313 313 313 313 313 313 313 313 313 313 312 314 321 324 324 326 327 327 329 330 330 331 331 331 331 333 334 334 334 333 333 333 332 332 332 332 331 331 331 331 331 330 330 329 329 329 329 329 329 328 327 326 326 324 323 322 321
317 317 316 317 317 317 317 317 316 316 316 316 315 315 315 316 315 315 314 314 314 313 312 311 311 310 311 311 311 311 312 312 312 312 313 312 313 313 313 313 313 313 313 313 313 313 313 313 314 313 313 316 321 324 323 325 327 327 329 330 331 331 331 332 331 332 333 333 332 331 331 332 332 331 331 331 330 330 330 330 330 330 330 330 329 329 329 329 329 328 326 326 326 325 323 322 322
316 316 316 316 317 317 316 316 316 316 316 316 316 315 316 315 315 315 314 313 313 312 311 311 311 310 311 311 311 311 311 312 312 312 313 312 313 312 312 313 312 312 312 313 313 313 313 313 314 314 315 319 323 324 324 327 327 328 330 331 331 331 331 331 331 331 332 331 330 330 331 332 332 331 330 330 330 330 330 329 329 329 329 329 329 329 329 329 328 327 326 327 327 325 324 324 324
316 316 317 317 316 317 316 316 316 316 316 316 316 315 314 313 315 316 314 313 312 312 311 310 311 311 311 311 311 311 311 312 312 312 312 312 312 312 312 312 312 312 312 312 313 313 313 314 314 315 318 321 323 325 326 328 329 330 330 330 331 331 330 330 331 331 331 330 330 330 329 329 328 328 328 329 330 330 330 330 329 329 329 329 329 329 328 328 327 326 325 326 325 324 324 325 324
316 316 318 320 318 318 317 315 316 316 316 316 315 316 317 315 314 315 314 313 312 311 311 311 310 311 311 311 311 311 311 311 312 312 312 312 312 312 312 313 312 312 312 312 312 313 314 314 315 317 321 323 323 325 327 329 329 329 330 329 329 330 330 330 329 330 330 330 331 330 328 327 326 326 326 327 329 330 330 330 329 329 329 329 329 328 328 327 327 325 324 324 323 323 325 324 323
318 315 316 321 321 323 319 315 316 316 315 316 315 318 325 321 313 313 314 312 311 310 310 310 310 311 311 310 310 311 311 311 311 311 311 312 312 312 312 312 312 311 312 312 312 314 314 315 317 320 322 324 326 326 327 329 328 328 329 329 329 329 330 329 329 329 329 330 330 329 328 328 327 326 326 326 328 328 329 329 329 328 328 328 328 328 327 326 326 325 324 324 324 324 324 324 323
319 316 319 322 321 328 324 314 316 317 315 315 315 319 325 323 313 311 313 311 311 311 310 310 311 310 310 310 310 310 311 311 311 311 311 311 311 311 311 311 311 311 312 312 312 314 315 315 318 322 323 323 326 327 326 326 327 328 329 328 328 328 328 328 327 327 327 328 327 327 327 327 327 326 326 326 326 326 326 326 326 327 327 327 327 326 325 325 324 324 324 325 324 324 323 323 323
318 318 328 326 319 330 326 313 315 317 314 313 316 319 321 320 313 310 312 311 311 311 310 310 310 310 310 310 310 310 311 310 311 311 310 311 310 310 310 310 310 310 311 312 314 315 318 320 319 320 322 323 326 326 325 326 326 328 328 328 328 327 327 326 326 326 326 325 325 325 326 326 326 326 325 325 325 324 323 323 324 325 326 326 326 325 325 324 324 324 324 324 323 323 323 322 322
323 319 329 329 321 325 323 315 314 315 314 313 315 319 321 318 312 310 311 310 311 311 311 311 310 310 310 310 310 310 310 311 310 310 310 310 310 310 310 310 310 311 312 314 316 317 319 321 320 320 321 323 324 323 324 326 325 325 327 327 326 325 325 326 326 326 325 324 324 324 324 323 324 324 323 322 323 323 323 324 324 324 324 325 325 325 325 324 324 323 323 322 322 322 321 321 320
328 320 321 325 322 322 321 320 315 313 315 314 314 316 319 318 311 310 311 310 311 311 311 311 310 310 310 310 310 310 310 310 311 311 310 310 310 310 310 310 309 311 313 314 316 319 319 320 321 323 323 322 322 323 325 325 324 325 326 326 325 324 325 324 324 324 323 323 322 322 322 322 322 322 321 321 322 323 323 324 324 324 323 323 323 323 323 322 322 321 321 321 320 320 319 319 318
330 325 323 323 323 322 322 322 318 314 316 316 315 315 315 316 312 310 311 310 311 311 311 311 311 311 310 309 309 309 309 309 310 310 310 309 310 310 309 309 311 313 314 314 315 319 321 321 322 324 325 323 322 323 324 323 324 325 325 325 324 323 323 323 322 321 320 320 320 320 321 321 321 320 321 321 322 322 323 323 323 323 322 322 322 321 321 320 320 320 319 318 318 317 315 314 313
329 328 327 326 325 323 322 321 318 315 316 316 316 316 315 315 315 312 310 311 311 311 311 311 311 310 310 309 309 309 309 309 310 309 309 309 309 310 308 310 313 315 317 317 316 319 322 322 322 322 323 324 323 322 323 324 324 324 323 323 323 322 322 321 320 319 319 319 319 319 319 320 320 320 321 321 322 322 322 321 321 321 321 320 320 320 319 318 317 316 314 312 311 310 308 307 305
323 322 324 325 324 323 322 321 317 314 317 319 317 316 316 316 317 313 310 311 310 310 311 310 311 310 310 309 308 309 308 308 309 308 308 308 309 310 308 311 316 317 318 319 317 319 322 322 322 322 321 322 323 323 323 323 323 323 323 322 322 321 320 319 318 318 318 318 318 318 317 318 318 319 319 320 320 320 320 319 319 318 317 316 316 315 313 311 309 308 306 305 304 304 304 302 302
320 320 321 322 323 323 322 320 317 314 317 322 320 318 318 318 319 314 310 310 310 309 310 310 311 310 310 309 308 308 308 308 308 307 307 308 309 309 307 311 316 316 317 320 318 319 321 322 322 322 320 320 320 321 321 321 321 321 321 321 320 319 319 318 317 317 317 317 316 316 316 316 316 316 316 315 315 315 314 313 312 311 309 308 308 306 304 304 303 302 301 301 301 301 301 300 300
320 321 319 322 324 323 322 320 318 315 318 324 325 321 319 319 319 315 310 310 311 311 311 311 311 311 310 309 308 308 308 307 307 307 307 308 309 309 308 311 314 314 316 319 318 316 318 320 320 320 320 319 318 319 319 320 319 319 319 318 318 318 317 317 317 316 316 315 315 315 314 313 312 311 309 309 308 307 306 306 305 304 303 302 301 301 300 300 299 299 299 299 299 299 299 299 298
322 322 320 323 325 322 323 323 318 316 318 321 322 320 318 317 318 317 313 311 311 311 311 311 311 311 310 310 309 308 308 307 307 307 307 308 309 309 310 313 315 316 317 317 317 317 317 318 317 318 319 318 318 319 319 319 319 318 317 317 317 317 316 316 315 314 313 312 311 310 308 307 306 305 304 304 303 303 302 301 301 300 300 299 299 299 299 298 298 298 298 297 297 298 297 297 297
324 325 323 325 325 322 322 322 319 321 322 319 318 321 323 321 319 319 314 310 311 310 311 311 310 311 310 309 309 308 309 308 308 307 307 308 309 308 311 315 317 316 316 316 316 318 317 316 315 316 317 317 317 317 317 317 317 316 316 316 316 315 313 312 311 309 308 307 306 304 303 303 303 302 301 301 300 300 299 299 298 298 298 298 298 298 298 297 297 297 296 296 296 296 295 295 295
323 326 325 323 323 323 322 322 321 326 328 323 319 325 333 331 324 322 317 312 313 311 309 310 311 310 309 309 308 308 308 308 308 308 307 308 308 309 311 315 316 314 313 314 316 316 315 315 315 317 317 317 317 316 316 316 315 315 315 315 314 311 309 307 306 305 304 303 303 302 301 300 300 300 299 299 299 298 298 298 298 297 297 297 297 297 297 296 296 296 295 295 295 295 294 294 294
322 326 326 323 321 322 322 322 322 328 331 323 319 326 331 328 325 324 322 317 316 312 308 308 309 309 309 309 308 308 308 307 307 307 307 308 308 309 310 313 315 313 313 316 317 316 314 314 316 316 316 316 316 315 315 314 314 314 313 312 310 307 306 304 303 303 302 302 301 300 299 298 298 298 298 298 297 297 297 297 297 297 297 297 296 296 296 296 295 295 294 294 294 293 293 293 293
326 325 326 326 321 322 323 322 323 328 330 322 319 324 325 323 323 322 322 321 318 313 311 308 307 308 308 308 308 308 307 307 307 306 307 308 309 309 309 312 314 312 314 317 317 316 314 314 315 315 315 315 314 313 312 312 312 311 310 308 306 305 305 304 302 301 301 300 299 298 298 297 297 297 297 297 297 297 297 297 297 296 296 296 296 296 295 294 294 294 293 293 292 292 292 292 291
325 323 326 328 324 326 327 325 325 326 326 323 321 322 324 325 325 321 318 320 320 316 313 309 307 307 307 307 308 307 307 307 306 307 307 307 309 309 309 312 313 312 315 317 316 314 313 314 314 314 314 313 312 311 310 310 309 307 306 305 304 304 303 303 301 300 299 298 298 298 297 297 296 296 296 296 296 296 296 296 296 296 295 295 295 294 293 293 292 292 292 291 291 291 290 290 290
320 320 326 329 327 329 329 327 327 325 325 325 323 322 324 327 327 321 316 318 321 318 314 310 307 307 307 307 307 306 306 307 306 306 307 307 309 309 309 311 313 313 314 315 314 313 313 314 313 313 313 312 310 309 308 308 306 305 305 304 304 303 303 302 301 300 298 298 298 297 297 297 296 296 296 296 296 296 296 295 295 295 294 293 293 292 292 292 291 291 291 290 290 290 289 289 289
317 323 328 328 328 328 329 327 325 325 325 324 324 323 323 326 325 321 319 320 321 318 317 313 308 306 307 306 307 306 306 306 305 305 306 307 310 310 309 311 313 314 313 313 313 313 313 314 313 313 312 310 309 307 306 305 304 304 304 303 303 303 302 302 301 300 298 298 298 297 297 296 296 296 296 296 296 295 295 294 294 293 293 292 292 292 291 291 291 291 290 290 290 289 289 289 288
319 329 329 326 328 328 327 323 321 325 326 324 324 321 321 325 324 320 319 320 320 319 319 318 310 305 306 306 306 306 306 305 305 305 305 307 310 310 310 312 314 314 313 312 313 313 313 313 312 311 310 309 307 305 304 304 303 303 303 302 302 302 302 301 301 300 298 298 298 297 297 296 296 296 295 295 295 294 294 294 293 293 293 292 292 292 291 291 291 290 290 290 289 289 289 289 288
321 326 325 325 326 326 326 322 321 324 323 320 320 320 320 322 323 321 320 320 320 317 315 315 309 305 306 306 306 306 305 305 305 305 305 306 310 310 309 312 314 314 312 312 312 312 312 311 310 309 308 306 305 304 303 303 302 302 302 301 301 301 301 300 300 299 298 297 297 297 296 296 296 295 295 295 294 294 294 293 293 293 293 292 292 292 291 291 290 290 290 289 289 289 289 289 288
320 321 324 326 325 326 328 325 323 324 323 319 317 319 322 322 322 322 320 317 314 311 310 312 310 309 307 306 306 305 305 304 304 304 304 306 309 309 309 312 313 312 311 312 312 311 310 310 308 307 305 305 304 303 303 302 302 301 301 301 301 300 300 299 298 298 297 297 296 296 296 295 295 295 295 294 294 294 294 293 293 293 292 292 292 291 291 290 290 290 289 289 289 289 289 288 288
318 320 322 324 325 330 330 327 326 327 325 319 315 320 325 326 323 319 313 309 308 308 310 311 310 310 308 306 305 305 304 304 303 304 304 305 309 309 308 310 312 311 311 312 311 310 309 307 306 305 304 303 303 302 302 302 301 301 300 300 300 300 299 298 297 297 296 296 296 296 295 295 295 295 294 294 294 294 293 293 293 293 292 292 291 291 291 290 290 289 289 289 289 288 288 288 288
319 321 322 323 327 329 327 325 323 322 323 319 317 322 325 323 320 313 307 306 307 308 308 308 308 307 306 305 304 304 304 303 303 303 304 305 308 309 309 310 311 311 312 311 310 308 307 305 304 304 303 303 302 302 301 301 301 300 300 299 299 298 298 297 296 296 296 295 295 295 295 295 294 294 294 294 294 293 293 293 293 292 292 291 291 291 290 290 289 289 289 288 288 288 288 288 287
320 320 321 323 325 326 325 324 319 318 323 322 319 322 322 320 319 315 311 310 309 307 306 306 305 305 305 304 304 303 303 303 303 303 304 305 307 309 309 310 311 312 312 311 308 306 305 304 303 303 302 302 302 301 301 301 300 300 299 299 298 297 296 296 296 296 295 295 295 295 294 294 294 294 294 294 293 293 293 293 292 292 292 291 291 291 290 290 289 289 288 288 288 288 287 287 287
321 322 320 320 323 325 326 327 323 322 325 323 321 322 321 321 320 317 313 313 312 311 308 305 303 303 304 303 303 303 303 303 303 303 304 304 307 309 310 310 311 312 311 309 307 305 304 303 303 303 302 302 301 301 301 300 300 299 299 298 297 296 295 295 295 295 295 295 295 294 294 294 294 294 294 293 293 293 293 292 292 292 292 291 291 290 290 289 289 289 288 288 288 287 287 287 287
319 321 318 320 326 325 324 325 325 325 325 325 324 322 320 320 321 319 316 315 315 313 309 306 304 303 302 303 303 302 303 303 303 303 304 304 306 309 310 310 311 311 310 307 306 305 304 303 303 302 302 301 301 300 300 300 299 298 298 297 295 295 295 294 295 295 295 294 294 294 294 294 294 293 293 293 293 293 292 292 292 292 292 291 291 290 289 289 289 288 288 288 288 287 287 287 286
315 316 315 320 324 323 323 324 324 326 326 326 326 323 321 320 320 322 319 315 315 312 309 307 305 303 303 303 303 302 303 303 303 303 304 305 306 308 309 310 310 310 308 307 305 304 303 303 302 302 301 301 300 300 300 299 298 297 296 296 295 294 294 294 294 294 294 294 293 293 293 293 293 293 293 293 293 292 292 292 292 292 291 291 290 290 289 289 288 288 288 288 287 287 287 287 286
316 317 317 318 319 319 322 322 323 327 326 326 326 323 324 322 319 319 318 315 314 311 310 308 304 303 304 303 303 303 303 302 303 303 304 305 306 307 308 308 308 308 307 305 304 303 303 302 302 301 300 300 300 299 299 298 297 296 296 295 295 294 294 294 294 293 293 293 293 293 293 293 293 293 292 292 292 292 292 292 292 291 291 291 290 289 289 288 288 288 288 288 287 287 287 287 286
317 317 318 318 318 319 322 321 322 324 323 326 326 323 324 321 316 318 318 316 314 310 309 308 305 304 304 303 304 304 303 303 303 303 304 305 306 306 307 307 306 306 305 305 304 303 302 302 301 301 300 300 300 299 298 297 297 296 295 295 294 294 294 293 293 293 293 292 292 292 292 292 292 292 292 292 291 291 291 291 291 291 291 290 289 289 289 288 288 288 288 288 287 287 287 287 286
Wind_Speed
2 3 2 2 3 2 4 4 2 2 4 4 2 3 2 3 4 5 4 4 3 3 6 8 11 14 13 15 17 19 15 6 3 5 5 4 6 8 9 6 5 8 7 7 13 12 10 11 10 10 9 9 9 8 8 8 7 7 7 6 6 6 6 6 7 6 8 10 11 13 13 13 12 11 11 12 13 13 13 13 12 12 11 9 9 9 9 10 10 10 10 10 10 8 7 6 5
3 3 1 3 3 3 2 3 2 2 5 4 2 3 2 4 6 5 5 4 2 2 6 11 14 15 17 20 21 20 16 14 14 14 12 9 8 10 12 9 7 9 7 6 13 14 11 11 11 10 9 9 9 8 8 8 8 7 7 7 7 6 6 6 7 6 7 8 10 12 12 12 12 11 11 10 11 11 11 11 10 10 10 9 9 10 10 10 11 11 11 12 11 10 8 6 5
4 3 2 2 1 4 2 3 4 3 5 4 2 1 2 5 6 5 6 5 4 4 4 8 13 14 16 14 13 12 8 12 15 13 11 8 9 10 12 12 9 8 7 7 10 14 11 11 11 11 10 9 9 9 9 8 7 6 6 6 7 6 6 6 7 6 7 8 9 12 11 11 12 11 10 9 9 9 9 9 8 8 8 8 9 10 10 11 12 13 13 13 13 12 10 8 6
4 4 3 1 3 4 3 3 3 5 4 4 2 2 4 7 6 6 7 7 6 7 4 5 9 13 18 11 7 11 8 8 8 7 8 8 12 12 12 13 10 8 8 6 7 12 11 10 11 11 10 9 9 8 8 7 6 6 6 6 6 7 6 6 6 6 7 8 9 10 10 11 11 11 10 9 8 8 7 7 6 6 6 6 8 11 12 12 12 13 13 13 14 13 11 9 7
3 2 2 4 4 2 2 3 2 5 3 4 3 1 5 7 6 6 8 8 7 9 9 7 5 10 16 10 5 6 5 4 4 5 9 10 13 13 13 13 11 7 7 6 7 12 12 10 11 10 11 10 9 8 8 6 6 6 5 5 5 6 6 6 6 6 7 7 8 9 9 10 10 10 10 9 8 7 7 6 6 5 5 6 9 11 12 12 12 13 14 15 15 13 11 9 7
3 1 2 6 4 1 2 3 4 5 1 4 5 3 6 8 9 10 9 10 9 9 11 9 7 11 14 13 13 10 6 3 2 5 9 10 11 12 12 13 13 8 5 6 7 9 10 10 11 10 11 10 9 8 7 6 5 5 4 4 5 5 6 5 5 6 7 8 8 8 8 9 10 9 9 9 8 7 6 6 5 5 5 7 10 12 13 14 14 15 16 17 18 15 12 9 7
3 2 3 5 2 3 4 4 4 4 2 2 7 5 7 9 13 13 8 7 7 8 11 12 12 14 9 6 12 12 9 6 4 7 9 10 9 10 12 15 18 12 5 5 5 6 7 8 10 11 10 9 9 8 7 6 4 4 4 4 4 5 6 6 5 5 7 7 7 7 8 8 8 8 8 8 8 7 6 6 6 6 7 7 10 12 14 15 16 16 18 19 19 17 14 11 8
5 4 4 3 2 3 4 4 2 3 2 2 5 6 8 9 11 11 5 4 4 5 9 10 11 10 3 6 8 8 10 9 8 9 9 9 9 9 11 16 18 14 8 6 5 5 5 6 9 12 11 9 9 8 7 6 4 4 3 3 3 4 5 6 6 5 6 6 6 6 6 6 7 7 7 7 7 6 6 6 7 7 8 9 10 13 15 16 17 17 19 20 20 18 16 13 9
5 4 3 3 2 3 4 3 3 3 2 3 4 6 7 7 7 7 5 6 6 6 8 8 6 7 6 12 12 5 9 11 9 10 9 8 9 8 8 12 14 13 11 9 7 6 5 6 8 12 12 10 9 8 7 5 4 4 3 3 2 3 4 5 6 6 5 6 6 5 5 5 5 6 6 7 6 5 5 5 7 8 9 11 12 13 15 16 17 18 19 19 19 18 16 13 10
5 4 1 2 3 4 4 1 2 3 2 4 5 6 6 6 8 9 8 7 7 7 9 10 11 12 11 11 9 6 7 8 8 9 10 9 8 8 7 8 10 10 11 11 10 9 9 8 8 12 12 10 9 8 7 6 5 5 4 4 2 3 4 4 5 5 5 5 5 4 5 5 5 5 5 6 6 4 4 5 7 7 9 11 12 13 15 16 17 18 18 18 18 17 15 13 10
5 3 1 3 4 3 3 2 3 3 3 4 4 6 5 4 7 9 10 9 8 7 7 10 12 13 11 8 7 7 6 7 7 8 9 9 8 7 7 7 7 8 9 10 10 11 10 10 10 12 13 12 11 9 8 7 7 6 5 4 3 3 3 3 3 4 3 3 4 4 4 5 4 5 4 5 5 4 4 5 6 7 8 9 11 12 14 17 18 17 17 17 17 16 15 12 9
4 3 3 4 2 2 4 4 5 4 4 3 2 4 4 5 6 4 7 10 9 10 8 7 5 9 8 5 9 8 4 6 7 7 8 8 8 7 7 8 8 8 8 8 8 8 8 9 11 14 15 13 12 10 9 8 8 7 6 6 5 4 4 3 3 3 3 2 2 2 3 4 3 3 3 4 4 4 3 3 5 6 7 7 10 12 15 18 18 16 15 15 15 14 14 12 9
4 2 5 2 1 4 4 4 5 4 3 0 3 5 4 5 6 5 9 10 8 8 6 6 4 6 6 5 10 8 4 4 5 6 7 7 7 8 8 8 9 9 9 8 6 6 6 9 11 14 15 13 12 11 9 9 8 8 8 7 6 5 5 4 4 4 3 3 2 1 3 3 2 2 2 3 3 2 2 3 4 5 6 8 10 13 15 17 17 15 14 14 14 13 13 11 9
4 2 4 1 1 3 5 4 3 4 1 3 5 7 5 5 7 9 13 9 6 6 2 2 4 6 7 7 8 8 4 3 5 4 5 6 6 7 8 9 10 10 10 9 8 6 6 7 11 15 15 15 14 12 10 10 9 9 8 8 8 7 6 5 5 5 5 4 3 2 3 3 2 2 1 1 1 0 2 3 3 5 6 7 10 11 14 15 15 14 13 13 13 13 12 11 9
5 2 4 2 3 2 3 3 4 6 2 3 5 8 8 7 6 9 10 6 5 5 2 2 4 5 6 6 7 10 5 3 4 4 5 5 5 6 8 10 10 11 11 11 10 9 7 7 9 14 16 16 16 15 13 12 11 10 9 9 9 8 7 6 6 5 5 5 4 4 4 4 3 3 3 2 2 2 1 2 3 4 5 6 7 9 12 13 13 13 13 13 13 13 13 12 10
5 3 4 3 2 1 1 2 5 5 2 4 7 8 7 6 5 7 6 5 7 5 3 1 2 4 6 7 7 9 4 2 4 6 6 5 5 7 8 10 11 12 12 11 11 10 10 8 9 11 14 14 15 16 15 14 13 12 11 10 9 8 7 6 5 5 5 6 6 5 6 5 4 4 4 3 3 2 1 1 2 3 4 4 5 8 10 11 11 11 11 13 14 14 13 13 12
5 2 5 3 1 2 1 1 4 4 3 4 7 7 5 3 3 5 5 5 8 6 4 4 2 4 6 6 7 6 2 2 4 6 7 6 6 8 9 10 10 11 11 11 11 11 11 10 11 11 12 13 14 15 15 15 13 13 12 12 10 9 8 7 6 5 5 5 5 6 6 6 6 5 4 3 3 2 2 2 1 2 3 4 5 7 9 10 10 10 10 10 12 13 14 14 14
5 2 5 2 0 1 1 1 4 6 5 5 6 5 5 5 4 5 5 7 10 8 7 6 4 4 4 4 4 4 3 4 5 7 9 9 8 8 9 9 8 9 10 10 11 12 11 11 12 12 12 12 13 14 15 15 14 13 13 13 12 10 9 8 8 6 5 5 5 6 6 7 7 5 4 3 3 4 3 2 1 2 3 4 5 6 7 9 10 9 8 8 9 11 13 14 14
4 3 4 1 2 2 2 4 5 6 7 8 6 5 7 7 6 5 2 8 12 8 7 7 6 6 4 3 3 3 4 5 8 10 11 11 11 9 9 8 7 8 8 9 10 11 11 12 12 12 13 12 12 13 13 13 13 13 12 12 12 12 11 10 9 7 6 6 6 6 7 7 7 5 4 3 4 4 3 3 3 3 3 4 4 5 6 7 9 9 8 8 8 10 12 14 15
3 3 4 2 4 4 7 9 9 8 12 11 7 4 6 8 7 6 3 7 8 6 8 7 7 8 6 4 3 3 4 6 9 11 13 12 11 10 9 8 7 8 9 9 9 9 10 12 13 13 13 13 13 13 13 13 13 13 12 12 11 11 11 12 10 8 9 8 7 8 9 9 8 6 5 4 4 5 5 4 3 2 3 4 4 4 5 6 7 7 7 8 10 12 14 14 15
2 3 4 4 3 4 5 8 9 9 11 10 8 4 5 7 6 5 5 5 1 6 11 9 9 10 8 6 4 4 5 7 9 10 12 12 11 9 8 7 6 8 8 8 9 9 9 11 12 13 14 13 14 15 15 13 12 12 11 9 9 10 10 11 12 11 11 10 9 9 9 9 9 7 5 5 4 6 6 4 3 2 2 2 2 3 5 6 7 7 7 8 11 13 13 13 14
3 2 4 3 4 3 2 5 5 5 6 6 6 4 4 6 4 3 6 4 3 10 13 9 9 8 7 7 5 5 7 7 8 8 9 9 9 7 6 5 5 6 6 7 7 7 8 10 11 13 14 14 14 16 17 15 12 11 10 8 9 10 10 10 11 12 12 11 10 10 10 10 9 7 6 5 4 5 5 4 3 2 2 1 0 2 3 4 6 8 8 8 9 11 12 13 13
2 1 4 7 6 5 4 3 3 2 3 3 3 3 4 4 2 3 7 6 6 12 13 9 8 9 9 9 7 8 8 8 8 8 7 7 6 6 5 5 5 5 6 6 5 5 7 8 10 11 13 14 15 15 16 16 14 13 12 10 11 12 12 12 12 12 12 11 10 10 11 11 9 8 7 5 5 5 4 5 3 1 2 2 1 2 1 1 5 7 9 8 8 9 11 12 12
4 0 3 5 5 6 5 2 2 2 2 2 1 2 3 2 1 2 6 6 8 13 11 8 8 10 11 11 10 10 9 9 8 8 7 7 6 6 6 6 6 7 7 7 6 6 7 8 9 9 11 15 15 16 17 17 16 15 14 13 13 14 14 13 13 12 12 11 10 9 9 9 7 7 7 6 5 5 5 6 5 3 4 4 4 3 3 3 5 6 7 9 8 9 10 10 11
4 1 2 2 2 3 4 3 4 5 4 3 3 3 5 4 3 3 7 9 10 12 9 7 8 10 11 12 12 11 9 8 8 8 7 7 7 7 7 7 7 7 8 7 7 7 8 8 8 8 11 16 18 19 20 18 17 17 17 16 15 16 15 14 14 13 11 9 9 9 7 7 7 7 7 6 6 6 6 6 5 6 7 7 6 5 5 5 5 6 8 9 9 10 10 9 10
2 2 3 2 1 2 5 6 7 7 6 6 4 5 8 7 5 4 8 12 11 11 9 8 10 11 12 12 11 10 9 8 7 7 7 7 7 7 7 8 8 8 8 8 7 7 8 8 8 9 13 18 21 22 22 20 19 19 18 17 17 16 15 14 14 13 12 11 10 9 9 8 7 7 7 7 7 6 6 5 5 7 8 8 6 6 6 6 6 7 9 7 7 9 9 8 9
1 2 4 5 6 7 8 9 9 8 8 9 5 4 8 6 4 4 9 14 13 11 10 10 11 12 13 11 11 9 8 7 7 7 7 7 7 7 8 7 7 8 8 8 7 7 8 7 8 10 14 19 22 22 22 20 20 20 18 18 17 16 16 15 13 12 12 12 11 8 9 9 9 8 8 8 8 7 6 6 5 6 8 8 6 7 8 7 7 7 7 6 7 9 7 6 7
2 3 5 8 9 10 10 11 11 9 6 10 9 4 5 3 4 7 12 16 14 13 12 12 13 13 12 11 9 8 7 7 7 7 7 7 7 7 8 8 8 8 9 9 8 8 7 7 9 12 16 19 20 21 20 19 20 19 19 18 17 16 15 15 13 13 13 12 10 8 8 9 9 9 8 8 8 7 7 5 4 4 6 6 7 9 10 9 8 6 6 8 9 8 5 6 7
1 1 3 7 7 7 11 13 14 11 4 9 8 2 5 5 6 7 13 18 15 14 14 14 14 13 12 10 9 8 7 7 7 8 8 8 8 9 10 10 10 10 10 9 8 8 6 7 11 14 16 16 17 19 18 18 19 18 17 17 17 16 15 14 14 14 14 13 12 9 8 8 8 8 7 8 8 8 6 5 4 4 4 4 5 7 8 6 5 5 5 7 8 6 5 7 7
1 1 1 3 6 5 9 11 14 10 4 10 9 1 6 7 7 8 14 18 17 16 16 16 15 14 13 10 10 9 9 9 9 9 9 9 10 10 10 11 11 11 11 8 7 7 6 9 13 15 15 15 15 17 18 17 17 18 17 18 17 17 15 14 13 13 13 13 12 10 9 9 8 7 6 6 8 7 7 6 5 4 3 3 3 4 4 4 4 4 5 6 6 7 7 7 7
1 1 1 1 2 5 6 3 13 8 4 13 10 1 7 7 5 12 16 19 19 18 18 18 17 15 14 12 12 12 11 11 11 11 11 10 10 10 10 11 11 11 10 7 5 5 6 9 13 14 13 14 15 17 17 16 16 17 16 16 16 15 14 12 11 11 11 10 9 8 8 8 7 6 6 6 6 5 5 5 4 3 3 3 4 3 2 3 4 5 5 5 5 6 7 7 7
1 1 3 2 2 5 7 2 13 8 3 11 9 1 7 7 7 15 17 19 20 19 20 19 18 16 15 14 13 13 13 13 13 12 12 11 10 10 10 10 9 9 8 5 4 6 9 9 10 12 10 12 15 14 14 15 16 16 14 13 13 11 10 8 8 9 7 7 6 7 7 7 7 7 7 6 4 3 3 3 4 4 4 4 4 4 4 5 5 5 5 5 6 6 7 8 8
2 2 3 3 3 3 5 1 9 9 5 7 6 3 4 5 9 17 17 21 21 19 20 20 19 18 17 16 15 15 14 14 14 13 12 11 9 9 8 8 7 7 6 6 7 8 11 11 9 11 13 12 13 14 15 15 13 14 13 11 10 8 7 6 6 6 6 6 7 7 7 7 7 6 6 5 3 2 2 3 3 3 3 4 4 5 5 5 5 5 5 6 7 7 7 7 7
3 0 3 4 3 2 2 4 6 8 7 5 6 4 5 5 9 18 20 23 22 20 23 23 22 20 18 17 16 16 14 14 14 13 11 10 9 9 7 6 6 6 7 8 10 10 11 11 10 12 15 12 11 14 17 15 11 13 14 12 11 10 9 8 8 7 6 7 6 5 5 5 5 4 4 3 3 3 3 3 3 3 3 3 4 4 4 4 4 4 5 5 6 7 8 8 8
3 3 2 4 3 2 4 4 4 8 5 5 5 6 10 8 6 16 21 23 24 23 24 24 24 22 20 19 19 17 16 15 15 13 10 9 9 8 7 6 6 8 8 7 12 13 12 13 13 15 17 14 14 13 13 14 13 13 14 14 13 12 11 11 9 8 7 6 6 5 5 5 4 3 3 4 4 4 4 4 4 4 4 3 3 3 3 2 2 2 4 5 7 8 9 9 8
6 5 4 4 4 4 4 4 5 9 5 5 8 7 10 9 8 13 20 24 25 24 20 21 24 23 22 21 21 20 18 18 16 12 10 10 10 9 7 8 9 11 11 9 12 15 16 18 17 17 17 15 17 16 13 15 16 14 13 13 12 11 11 10 8 7 6 6 7 7 7 6 6 6 6 7 6 5 5 5 4 4 4 3 3 2 2 2 2 3 4 5 6 7 7 9 9
5 4 3 4 4 5 4 4 4 6 4 6 9 8 8 9 8 12 20 22 21 21 18 20 25 25 25 24 23 22 20 19 16 13 11 11 11 10 9 12 14 14 14 14 14 16 19 20 20 20 18 15 16 16 14 15 15 14 15 14 13 12 11 9 8 8 8 9 9 9 8 8 8 8 8 8 7 6 5 5 4 4 3 2 2 1 1 2 3 4 5 6 6 7 8 12 13
6 5 5 5 4 5 5 3 3 2 2 6 6 6 9 9 8 11 15 15 18 25 24 23 27 28 28 26 24 23 21 19 17 14 13 13 13 12 12 16 18 16 17 19 18 17 19 20 19 19 18 16 14 13 12 12 12 12 13 13 13 12 11 10 10 11 11 11 11 9 9 9 9 9 8 7 6 5 5 5 5 6 6 6 6 7 7 7 7 8 9 8 9 10 11 13 12
7 5 4 5 4 4 4 3 2 1 2 4 5 5 8 9 8 9 15 18 22 32 32 29 31 31 30 29 27 26 24 21 19 16 16 16 16 14 15 18 19 18 20 21 18 17 18 19 17 16 15 14 13 13 13 14 14 14 13 13 13 13 14 12 12 13 12 11 11 10 10 10 9 10 10 9 9 10 9 10 11 11 12 11 10 10 10 10 10 11 11 12 12 12 12 13 13
6 5 4 4 4 2 3 4 3 2 1 2 4 5 6 8 8 8 17 21 19 24 28 26 28 31 32 30 29 28 27 24 21 19 18 19 18 17 18 20 20 22 23 21 18 19 21 18 16 16 15 14 14 15 14 15 17 15 14 15 15 15 15 14 13 13 12 12 13 13 13 13 13 14 15 14 14 14 13 13 13 12 12 12 10 10 10 11 12 12 13 14 13 13 14 15 15
4 5 6 4 4 5 5 3 2 3 4 2 3 6 6 6 9 10 9 10 9 13 20 21 24 28 29 28 29 28 27 25 23 21 21 22 21 21 22 23 23 24 24 22 20 21 21 18 17 18 16 15 15 15 15 16 16 16 17 19 18 17 17 15 15 16 16 17 18 19 18 17 16 16 16 15 14 14 13 13 12 11 11 11 10 10 11 12 12 12 14 14 14 15 16 16 15
5 5 7 8 7 6 5 1 3 4 5 3 1 2 7 3 6 9 1 3 7 8 14 20 23 25 27 29 30 28 25 23 22 21 22 23 23 24 25 26 25 24 24 24 22 21 19 18 19 19 17 17 17 16 16 16 16 17 18 19 19 19 21 20 19 21 21 20 20 20 19 18 16 15 15 14 13 12 12 12 11 11 11 11 12 12 12 12 13 14 15 15 15 16 15 14 15
4 5 7 9 8 7 6 3 1 2 4 3 3 2 7 6 5 9 4 5 8 8 10 17 21 24 28 31 30 29 27 24 22 22 23 25 25 27 28 28 26 25 26 26 25 23 20 20 21 20 20 20 19 18 18 17 17 18 18 19 20 21 23 24 23 22 21 20 20 19 18 17 15 14 14 13 12 12 11 11 11 11 11 12 12 12 12 13 14 15 15 15 15 15 14 14 15
4 5 5 7 7 7 7 4 3 4 3 4 2 3 5 8 7 8 8 8 8 9 10 14 20 25 27 29 29 29 28 26 25 25 25 27 28 28 30 30 28 27 27 27 27 24 21 22 22 22 22 22 21 20 19 18 18 19 20 22 23 22 22 24 24 22 20 19 19 18 17 16 15 13 13 12 12 11 11 11 11 11 11 11 12 12 13 14 14 14 14 15 15 15 15 15 15
5 4 5 6 6 5 3 4 2 1 2 3 2 3 3 9 6 1 3 7 8 12 14 15 20 25 26 28 29 28 28 27 27 26 26 28 29 29 31 31 30 28 27 27 26 24 23 23 23 24 23 22 22 22 21 20 19 20 22 22 23 23 21 22 22 20 19 18 17 16 15 14 14 12 12 11 11 10 10 10 10 10 10 11 12 13 14 14 14 15 16 17 17 17 17 17 16
4 4 6 6 4 5 5 4 3 3 2 5 5 4 3 9 5 3 2 4 9 12 13 13 19 26 28 30 30 28 28 27 26 25 26 29 30 30 31 33 33 30 28 27 25 25 26 25 24 24 23 22 22 22 22 22 21 21 22 20 20 20 20 20 20 19 18 16 15 15 14 13 12 11 10 10 9 9 9 10 10 11 12 13 14 15 16 16 17 18 19 19 19 19 18 18 18
8 6 7 7 6 5 4 3 5 2 5 6 9 10 6 7 4 5 4 5 8 9 8 7 14 25 30 31 32 30 29 29 28 26 26 29 31 31 32 35 34 32 31 29 27 28 27 26 25 25 23 22 21 22 22 23 23 21 21 19 17 17 18 18 18 18 17 15 13 13 13 11 11 10 9 9 9 9 10 11 12 13 15 16 17 17 18 19 19 19 19 19 19 19 18 18 18
9 5 5 4 4 4 4 4 4 1 7 5 11 12 10 8 6 3 5 6 5 7 7 7 12 23 31 32 33 33 32 31 30 29 29 32 34 34 35 36 35 34 34 31 29 29 28 27 27 26 24 23 22 23 23 24 24 22 20 19 16 15 16 16 16 16 16 15 13 12 12 11 10 10 9 8 9 10 10 12 13 14 15 16 17 18 18 18 19 18 18 18 18 17 17 17 17
5 5 6 4 1 2 2 2 1 4 7 3 7 8 7 10 7 5 8 9 6 7 9 11 15 23 30 33 34 34 35 34 33 33 33 35 37 37 38 38 36 36 36 33 31 31 30 29 28 27 27 26 25 25 25 25 25 23 21 18 17 16 15 15 15 14 15 14 12 12 12 11 10 10 9 8 9 10 11 12 13 13 14 15 16 17 17 17 17 17 17 16 16 16 16 16 16
6 6 7 5 3 1 3 3 2 5 5 4 3 5 3 6 4 8 12 8 6 6 9 13 20 26 31 34 35 34 35 36 36 36 35 37 40 39 39 39 38 38 36 33 32 32 31 30 29 29 29 28 27 27 26 26 24 23 20 18 17 16 16 15 15 14 15 14 13 12 12 10 9 9 8 8 9 10 10 10 11 12 13 14 15 15 16 16 15 15 15 15 15 15 15 15 15
7 5 6 6 5 4 4 4 4 4 3 4 2 3 4 3 2 7 8 4 3 5 8 11 17 24 28 31 33 33 35 36 37 37 37 38 40 40 41 41 40 38 36 34 34 33 33 32 32 31 31 30 29 28 27 26 24 22 20 18 17 16 16 16 16 15 15 14 13 12 11 10 9 8 8 7 8 8 8 9 10 11 12 13 14 14 14 14 14 14 14 14 14 14 14 14 14
4 2 4 4 6 5 3 3 5 3 2 3 2 4 4 4 4 4 2 4 2 2 4 11 16 21 26 29 32 34 35 37 38 39 38 38 40 40 42 42 41 39 37 36 36 35 35 34 33 32 31 31 30 28 27 25 23 22 20 19 18 17 17 17 17 16 15 14 13 11 10 10 8 7 7 7 7 7 8 9 10 10 11 12 13 13 13 13 13 13 13 13 13 13 13 14 13
2 2 4 4 4 5 3 3 1 2 3 4 3 5 5 3 6 3 2 2 2 1 5 12 17 22 27 30 33 35 36 37 39 39 39 40 40 41 42 42 42 40 39 37 37 37 36 35 34 33 31 31 30 28 27 25 23 22 21 20 19 18 18 17 16 16 15 14 13 12 10 9 8 7 6 6 6 7 7 8 9 10 11 12 12 12 13 13 13 13 13 13 13 13 13 13 13
5 4 6 2 2 1 2 1 3 1 4 4 4 7 5 2 5 2 3 3 5 5 6 9 14 21 26 30 34 36 37 38 38 39 40 40 40 41 42 43 42 41 39 39 38 37 36 35 34 34 32 31 30 28 26 24 23 22 22 21 20 19 18 17 16 15 15 14 13 12 11 9 8 7 6 6 6 6 6 7 8 10 10 11 12 12 12 13 13 12 12 12 13 13 13 13 12
5 4 5 4 1 1 3 2 3 2 3 5 3 5 6 7 5 3 5 9 9 9 8 8 12 20 26 29 32 34 36 38 39 40 41 40 41 42 43 43 42 40 39 39 39 38 37 35 33 32 31 30 29 28 26 25 23 22 21 21 21 20 19 18 17 16 15 14 13 12 11 9 8 7 6 6 5 5 6 7 7 8 9 10 11 12 12 12 12 12 12 12 12 12 12 13 13
3 2 2 2 2 3 4 3 3 3 3 5 3 3 5 7 7 8 11 13 13 12 10 10 15 24 29 30 32 35 37 40 42 42 42 42 42 43 44 44 43 41 40 40 39 38 37 35 33 32 32 30 29 28 26 25 24 23 22 22 22 21 20 18 17 16 16 15 14 12 11 10 8 7 6 5 4 4 5 5 6 7 8 10 10 11 11 11 12 12 12 13 13 13 13 13 13
3 3 4 3 2 2 1 2 2 3 2 3 3 7 8 4 4 9 13 14 14 14 13 13 18 27 30 31 34 37 39 41 42 43 43 42 43 44 44 44 42 42 41 41 40 39 38 36 34 34 33 31 30 28 27 26 25 24 23 23 22 21 20 19 18 18 17 16 14 13 11 10 8 7 5 4 3 3 3 4 5 6 8 9 10 10 11 11 12 12 13 13 13 13 14 14 14
6 6 7 8 6 4 2 4 3 4 3 4 3 9 11 4 2 5 9 11 12 15 16 14 20 29 31 32 36 38 40 42 42 43 43 43 45 46 45 44 43 43 43 42 42 40 38 37 36 34 33 32 30 29 28 26 25 25 24 23 22 22 21 21 20 19 18 16 15 13 12 10 8 7 5 4 3 2 2 2 4 6 7 8 9 10 10 11 12 13 13 13 14 14 15 15 15
Wind_Direction
100 140 184 154 105 88 54 33 47 352 67 95 97 96 51 78 95 71 56 49 64 8 54 74 47 59 88 96 95 80 57 51 81 93 125 148 125 127 137 150 146 154 153 147 167 159 155 157 146 144 136 137 135 125 116 109 109 103 96 87 83 82 76 75 68 78 106 117 114 108 103 97 88 78 69 58 57 58 57 56 53 53 53 58 62 60 56 51 46 42 40 38 38 38 38 40 43
90 129 136 116 80 44 42 39 83 14 53 72 35 105 91 61 70 75 83 74 113 110 75 74 55 65 98 98 90 77 54 59 82 100 116 111 119 133 128 147 160 152 144 128 165 167 160 159 152 153 142 141 141 132 124 113 110 101 93 86 80 81 81 86 82 87 106 112 108 106 102 95 92 85 76 67 62 60 58 56 53 54 56 57 56 54 47 39 33 28 22 18 15 13 15 19 21
90 108 99 128 49 31 42 41 86 81 74 88 17 330 82 77 91 112 99 84 92 88 84 73 58 66 90 84 70 78 71 71 82 98 105 106 126 127 123 147 163 154 144 113 154 169 163 163 159 155 149 146 144 134 128 119 110 98 88 82 75 74 77 85 88 97 109 109 104 105 101 91 89 87 79 74 69 64 60 56 53 54 58 57 51 46 35 27 22 16 11 6 1 357 357 359 1
84 94 93 73 21 33 53 54 102 107 102 126 76 352 93 108 121 116 94 80 78 74 74 78 65 74 86 80 72 84 73 63 68 95 101 107 124 121 124 146 163 157 144 110 136 163 162 164 164 160 158 153 148 139 135 128 114 105 94 86 74 66 70 83 89 97 107 106 106 107 101 89 85 84 83 77 71 68 60 53 53 54 53 49 44 37 27 21 15 9 3 359 356 355 354 355 357
77 92 74 17 25 34 76 67 89 92 130 166 118 125 121 123 125 115 103 91 85 72 65 81 91 87 82 66 69 70 39 70 58 79 99 109 117 120 130 143 156 154 141 112 113 154 160 159 164 167 167 162 155 150 145 138 125 117 106 97 78 63 66 82 93 101 108 106 109 108 99 91 85 83 83 78 73 71 63 51 51 56 52 38 31 24 18 13 7 4 0 360 1 1 2 5 8
100 113 25 12 30 46 73 68 65 72 180 158 123 159 136 130 129 121 109 95 90 79 71 83 109 99 83 66 67 55 33 90 89 81 101 112 115 119 131 136 142 154 155 115 102 149 161 158 165 169 172 170 164 161 155 143 133 121 111 106 88 69 67 79 96 110 114 113 114 108 100 94 87 84 82 78 73 73 70 55 45 44 37 21 16 12 7 5 3 2 1 2 4 5 10 16 22
88 56 12 14 36 43 84 102 92 81 352 107 132 150 137 135 134 127 117 102 83 75 78 84 108 98 86 96 71 51 55 93 113 100 106 115 118 118 122 127 141 159 169 135 121 150 158 159 168 173 173 173 171 170 163 153 143 125 115 106 93 80 73 79 93 113 120 120 120 110 105 97 87 84 81 81 76 76 73 57 48 40 30 18 12 8 4 4 2 3 3 4 6 7 14 20 29
62 39 21 41 46 36 88 102 92 128 38 62 126 131 130 124 128 135 128 120 92 72 77 79 107 93 64 140 97 60 75 89 99 100 110 119 122 125 121 129 146 159 157 157 170 175 168 162 170 178 177 177 177 174 170 165 157 142 134 124 103 88 80 85 95 111 119 119 124 120 113 98 87 81 76 82 83 80 71 56 49 41 34 24 16 11 8 7 5 5 4 6 7 10 17 22 28
53 41 25 55 57 44 77 83 68 116 97 83 91 104 117 93 94 126 112 98 104 84 55 47 102 121 106 106 105 105 84 83 95 101 115 125 129 133 131 139 155 160 160 170 184 197 197 183 178 181 179 181 183 179 175 171 171 166 158 154 126 99 89 89 99 111 118 118 120 124 124 111 95 83 75 79 83 78 67 55 41 37 35 24 15 13 10 8 5 3 3 6 9 12 20 24 26
49 45 26 65 62 62 72 60 73 106 123 120 98 97 108 77 72 102 105 94 109 89 54 64 100 129 123 100 103 111 92 96 106 110 122 132 138 142 147 154 163 164 169 180 190 203 207 199 189 185 181 182 186 185 182 180 185 179 170 170 147 120 109 96 100 113 124 126 121 122 133 134 116 94 88 84 82 76 65 51 33 27 28 19 13 12 8 6 4 2 3 6 11 16 23 25 24
37 12 15 70 47 68 131 132 104 121 126 105 79 88 102 84 74 95 101 94 105 88 66 82 100 124 115 98 121 108 100 125 127 123 125 135 146 151 158 164 177 180 180 186 194 201 203 199 193 188 183 184 187 186 190 192 191 185 182 183 163 139 129 113 110 119 125 128 125 127 146 150 130 106 101 94 85 83 76 51 28 16 16 15 12 9 6 4 2 2 4 8 14 19 26 26 23
27 347 49 80 51 126 159 137 132 128 97 80 65 107 108 77 60 76 96 95 107 88 60 57 93 134 112 107 143 128 117 137 132 126 124 135 150 159 163 164 178 198 202 198 200 200 196 192 190 187 184 186 189 190 196 197 195 191 188 189 181 172 159 144 138 137 131 135 137 135 158 157 131 117 106 92 82 83 82 41 16 11 11 13 11 10 8 3 360 1 6 12 17 22 30 30 26
42 20 72 98 186 133 126 125 147 114 65 355 169 147 124 82 55 61 93 93 104 98 65 47 79 126 111 127 151 156 160 141 125 121 125 135 155 167 169 168 174 194 208 211 214 212 201 189 184 183 184 187 192 194 200 202 202 199 193 192 190 189 184 173 169 164 154 151 160 169 181 180 153 143 122 93 71 61 34 359 360 13 13 8 9 11 8 2 0 3 10 17 20 24 31 35 32
48 53 88 121 323 107 116 119 150 107 62 264 164 140 115 96 65 75 97 89 76 93 94 74 92 106 117 130 158 186 182 133 128 126 131 137 162 172 176 178 178 188 202 213 220 227 222 205 184 179 183 189 194 196 200 205 206 205 202 198 196 198 196 189 188 179 171 167 166 178 203 211 201 190 168 117 98 327 329 340 359 24 20 7 8 10 5 2 5 9 15 22 25 26 28 32 34
46 49 95 89 7 69 133 146 143 117 164 237 154 135 104 100 85 82 97 101 94 103 141 150 105 111 154 164 179 189 171 123 139 134 135 142 164 171 183 186 185 189 195 206 215 224 225 224 197 183 187 192 195 198 201 205 207 208 208 207 203 204 206 196 195 189 179 176 177 183 196 208 214 211 206 187 187 217 298 347 4 25 20 5 6 8 7 5 9 15 20 24 26 27 27 28 28
39 39 79 67 4 81 160 137 116 108 193 211 160 144 107 99 111 96 91 118 128 130 161 154 89 112 152 167 176 182 167 147 152 141 141 146 173 178 185 188 192 194 194 198 203 212 212 213 210 196 193 193 198 200 203 207 210 210 209 211 211 214 216 205 202 201 191 181 182 191 193 200 211 217 221 218 209 230 281 332 357 21 10 360 6 7 10 8 11 22 27 28 29 29 30 31 30
25 43 69 47 360 74 13 91 130 146 186 189 160 151 130 109 123 121 107 130 133 131 136 106 89 121 134 148 169 187 195 174 166 160 155 159 189 196 195 192 194 198 200 201 200 207 209 207 208 205 200 196 196 200 202 205 211 214 214 213 212 215 213 209 211 209 205 192 191 198 199 202 207 215 225 237 239 236 252 286 339 18 2 356 3 1 9 9 11 25 32 34 33 32 35 35 33
26 92 80 61 83 48 282 168 153 149 145 169 154 128 141 146 151 145 111 119 127 115 112 115 130 138 127 143 171 195 206 192 183 180 173 176 196 209 206 197 195 201 203 205 206 208 208 210 211 208 207 202 196 197 197 200 208 214 219 218 214 216 214 214 208 201 216 212 205 205 207 213 216 223 224 239 247 228 234 266 307 347 353 360 358 354 10 11 9 20 27 30 30 29 31 32 31
44 93 84 125 179 47 33 108 107 130 143 156 140 106 138 152 152 158 124 128 134 113 103 126 142 139 133 155 196 214 205 193 183 184 186 189 202 215 219 211 206 214 215 212 215 215 212 213 215 213 213 208 199 195 192 197 209 214 219 221 218 219 220 220 206 200 222 218 211 211 211 218 222 230 227 230 238 230 247 278 304 333 349 358 354 358 18 13 5 14 19 20 19 15 18 23 27
34 67 84 235 191 72 54 82 79 116 141 137 129 121 136 148 149 158 146 127 140 146 144 156 160 160 163 169 208 229 216 199 183 183 189 197 208 219 229 230 225 230 231 229 228 227 224 219 217 217 215 213 204 195 191 196 206 212 216 217 216 219 222 225 222 229 233 215 204 210 212 216 220 227 233 233 239 241 249 272 296 334 354 354 359 10 18 6 360 13 20 16 10 7 9 15 21
5 72 140 212 165 88 56 84 75 98 124 123 131 133 127 151 158 167 154 117 145 186 172 184 184 179 177 175 198 213 208 195 180 181 188 197 209 219 232 236 236 241 244 246 244 238 236 231 224 219 215 215 207 197 194 194 202 208 209 213 212 213 218 217 219 229 231 217 207 212 211 213 216 218 227 229 241 243 240 262 287 322 341 345 6 8 8 357 347 357 13 12 7 5 6 6 12
42 74 126 101 88 117 119 107 92 95 108 112 125 122 132 159 171 192 182 172 214 190 180 186 191 195 196 195 196 193 192 181 174 177 181 190 201 211 225 232 238 249 254 256 257 251 244 239 231 223 215 211 206 200 196 190 195 198 189 198 203 200 204 203 207 216 218 216 213 214 213 214 214 210 216 219 221 224 228 257 270 293 311 285 328 346 3 360 337 339 348 356 1 358 356 358 5
72 50 71 64 72 133 151 128 126 127 119 108 116 138 149 162 228 229 198 198 195 182 178 180 195 211 219 214 197 186 181 169 169 171 174 182 190 203 216 230 241 252 263 266 268 262 253 246 238 229 214 207 204 199 196 191 195 195 183 187 197 198 200 201 207 211 210 209 209 215 216 213 208 205 213 215 217 219 229 243 237 269 283 221 248 299 326 320 309 321 327 331 342 343 348 353 359
87 16 30 56 72 126 156 173 165 208 182 155 131 177 198 196 224 212 187 189 187 181 182 190 203 208 211 205 189 185 181 172 174 177 183 189 197 214 225 237 247 253 262 267 268 263 261 254 244 234 210 202 197 190 191 193 196 194 189 189 195 202 204 205 207 209 213 213 209 214 214 211 213 218 225 228 225 227 234 230 224 243 239 231 251 262 249 250 273 295 306 311 313 320 341 348 355
77 58 357 34 64 149 193 221 220 243 229 206 237 235 238 239 240 234 194 188 187 187 191 196 199 198 194 189 183 185 186 181 185 193 201 207 215 229 240 249 253 260 263 262 262 261 261 256 246 231 203 192 187 187 191 193 195 194 194 194 197 204 207 208 205 202 209 209 204 211 219 223 227 226 227 227 226 230 238 238 235 238 239 242 242 236 233 230 242 267 290 301 302 313 340 346 352
66 70 6 354 276 226 222 228 229 242 238 224 242 252 256 258 254 259 214 196 192 190 192 192 194 191 183 182 182 183 190 192 198 210 217 225 234 243 250 257 260 263 266 267 265 258 255 249 239 219 195 186 184 188 191 191 193 194 196 198 202 206 206 209 209 204 204 206 210 221 229 230 226 225 224 223 230 242 250 256 248 239 245 249 246 240 232 227 237 264 284 290 295 314 339 346 349
41 30 339 302 273 269 238 225 231 236 238 229 216 241 266 254 218 234 207 193 193 190 186 188 191 187 182 184 185 183 193 203 214 224 231 242 247 252 256 260 265 268 272 278 278 267 254 237 223 203 186 182 185 188 189 190 192 195 197 199 203 206 207 211 210 207 209 212 216 221 221 221 224 228 230 229 235 246 255 259 252 248 252 252 262 259 244 244 249 262 276 270 284 307 329 339 344
36 360 324 292 282 283 247 223 226 218 229 225 206 235 279 216 206 233 203 191 196 194 186 187 192 190 185 187 191 193 202 213 229 237 244 254 258 264 268 271 276 281 283 284 281 265 248 222 202 189 182 182 185 188 187 189 191 194 198 198 200 204 208 211 207 205 209 209 208 208 210 216 222 226 229 233 236 242 253 260 262 265 261 261 271 259 244 244 249 259 268 265 277 294 308 311 320
19 7 323 298 321 304 244 226 215 199 197 204 185 308 297 217 224 233 198 188 190 193 188 187 193 196 191 192 199 204 215 224 235 243 251 259 264 270 273 279 281 283 282 278 268 250 228 198 184 177 178 181 186 189 188 193 196 195 197 198 198 200 203 206 203 203 206 206 206 210 214 218 225 229 231 235 237 241 248 252 253 255 256 261 265 253 245 245 251 267 274 272 276 277 283 288 298
289 282 134 311 352 324 250 227 203 186 173 177 161 314 278 250 232 194 183 184 182 184 185 187 194 199 198 199 205 211 220 225 230 236 242 248 252 259 263 269 271 272 273 265 250 231 195 173 172 171 175 178 185 191 189 192 196 195 197 200 198 197 199 202 201 202 206 209 212 217 223 227 229 234 241 242 238 235 235 237 235 235 240 243 240 242 258 270 268 274 275 274 268 267 277 278 284
261 352 65 13 351 290 294 203 173 167 178 170 146 219 257 277 232 179 180 184 183 184 183 188 196 200 204 205 207 214 218 220 226 228 232 236 239 244 250 256 257 257 257 247 224 199 165 152 160 167 177 178 183 193 195 195 196 195 199 205 205 201 200 202 203 202 203 205 212 219 223 224 221 225 234 236 233 228 235 240 239 240 235 231 228 218 242 266 259 263 267 259 254 263 271 268 274
58 51 318 328 167 264 313 152 165 161 185 172 145 206 260 277 207 180 181 184 188 189 186 192 198 201 205 208 210 214 216 216 219 223 225 229 235 239 243 246 243 238 235 215 180 157 137 132 152 164 166 171 178 187 192 191 192 195 197 197 200 202 198 201 201 197 200 207 218 221 213 210 206 208 211 211 216 228 249 244 234 232 227 228 233 227 234 243 245 254 258 252 257 265 266 268 278
351 138 246 266 182 266 319 238 188 164 138 182 187 203 262 272 192 183 187 187 191 193 192 197 201 204 205 208 214 214 215 215 215 221 224 230 240 246 248 242 228 216 203 168 149 144 139 137 145 156 154 159 178 187 185 187 194 198 197 192 192 195 194 200 198 196 209 216 220 216 207 201 193 189 195 198 201 215 244 234 217 214 223 235 237 235 239 240 246 254 260 264 271 276 281 287 293
312 196 233 247 205 225 279 288 229 168 142 195 219 227 248 264 188 188 196 194 194 198 200 201 202 206 206 207 213 215 218 220 221 223 224 233 243 249 250 235 210 181 166 158 150 143 141 138 136 156 163 155 166 178 176 180 185 179 179 180 177 174 176 179 177 180 187 188 189 188 184 182 177 175 186 189 190 205 218 219 220 223 226 232 230 231 238 244 252 260 270 282 292 298 302 306 307
214 188 214 258 250 228 219 261 224 168 161 198 205 239 250 265 218 200 203 199 201 206 206 204 202 204 204 205 208 212 218 223 225 223 221 228 231 240 237 201 179 157 146 150 149 146 147 144 139 155 165 160 162 171 173 176 173 161 159 160 159 160 163 162 161 165 167 167 167 157 151 153 157 161 159 158 168 186 190 190 200 204 196 196 200 211 220 234 258 280 298 308 312 313 316 322 329
183 182 172 200 234 263 234 245 215 168 172 221 208 225 243 249 241 216 209 204 207 215 213 206 202 202 203 204 207 209 214 218 221 220 217 218 217 223 214 176 160 152 150 152 147 148 157 158 154 156 158 158 161 164 172 179 176 170 165 163 164 162 160 160 158 161 163 160 156 148 146 145 144 147 146 148 157 162 161 162 169 170 165 168 180 202 226 260 293 316 332 343 346 346 357 13 25
207 220 223 208 212 264 261 260 244 163 164 240 222 226 246 243 241 228 214 205 210 218 218 208 201 202 204 203 204 206 210 215 218 218 209 206 207 209 196 168 158 156 160 163 153 152 160 163 167 166 161 161 157 153 157 164 164 165 166 168 171 165 162 171 167 161 160 154 149 148 152 149 145 147 146 150 158 159 159 159 161 159 150 155 165 143 81 38 21 26 30 34 37 37 39 44 50
239 240 250 254 227 250 258 247 262 147 173 259 251 246 260 251 244 233 208 196 211 215 213 210 204 204 206 204 202 202 206 210 213 213 204 199 201 201 186 168 164 165 163 162 155 155 160 158 161 161 158 164 167 165 166 168 166 167 171 172 174 170 166 172 164 153 153 150 147 148 148 147 148 149 146 148 152 147 143 138 129 117 104 96 94 89 79 70 61 54 48 42 39 35 38 43 49
234 232 229 251 249 261 293 312 322 39 180 258 293 280 265 261 253 231 204 201 215 216 213 213 208 204 204 202 200 200 202 206 209 208 199 196 197 194 181 169 170 171 167 166 163 164 165 161 162 163 162 166 172 174 174 177 176 178 183 178 176 173 164 163 161 151 151 152 148 146 142 140 140 136 127 125 125 118 113 109 103 97 92 85 81 81 76 67 56 47 38 32 28 25 26 28 30
219 212 195 235 250 235 273 297 296 308 227 248 308 302 272 267 267 244 219 216 221 220 218 220 215 210 207 205 204 204 205 205 205 202 196 194 194 188 177 170 170 172 173 177 175 170 169 171 174 170 167 167 170 173 174 179 179 180 182 172 170 170 159 158 159 149 148 149 141 134 128 124 122 119 114 113 111 107 103 99 94 92 90 83 76 72 66 56 47 40 34 29 23 19 21 22 21
233 198 184 205 221 210 227 268 311 340 336 304 328 313 279 253 252 256 235 217 222 217 215 219 220 216 211 207 207 210 212 212 209 202 195 194 192 185 176 172 173 177 180 178 174 171 169 171 172 169 168 169 171 173 175 180 179 175 173 166 166 164 152 150 149 141 138 136 130 123 119 117 117 115 112 110 106 103 99 95 91 87 83 76 66 57 53 48 41 36 33 27 23 24 25 22 19
257 224 198 198 205 216 218 136 55 2 321 284 98 304 281 272 248 258 255 169 214 209 206 211 211 209 207 205 205 207 211 216 216 208 198 194 191 185 179 177 180 184 183 178 175 175 174 170 168 169 171 171 171 173 175 177 173 170 168 163 162 156 145 142 140 135 134 131 127 124 121 120 119 116 113 109 104 100 94 88 81 74 68 62 54 48 45 41 34 30 28 23 21 26 23 17 20
244 241 202 200 209 218 213 186 144 262 265 271 112 164 273 292 258 248 216 188 218 215 213 212 203 200 202 202 202 202 205 208 211 207 199 194 191 186 181 181 184 185 183 182 179 175 173 172 171 173 174 173 172 173 172 173 170 166 165 160 156 150 143 139 137 135 134 132 129 127 125 122 119 115 111 104 97 91 84 77 69 60 55 51 45 38 34 31 27 25 22 18 19 20 15 12 19
232 246 176 181 202 212 213 193 200 226 257 315 45 125 278 279 255 239 207 200 230 232 229 221 206 200 198 199 201 202 205 207 205 202 197 194 192 188 183 181 183 183 181 181 179 174 176 178 177 177 178 175 173 171 168 167 166 162 160 157 151 148 144 139 139 140 137 135 132 129 126 121 115 109 102 96 89 82 74 67 60 51 46 43 38 31 30 30 26 24 22 19 19 17 15 17 19
241 227 126 137 168 167 141 122 150 316 351 306 267 121 280 271 259 266 187 202 236 239 230 224 211 202 196 196 200 202 206 208 207 203 198 194 192 189 185 181 181 182 180 179 179 180 183 184 182 180 178 174 171 168 164 162 163 160 157 155 150 147 146 142 143 143 138 137 134 128 124 118 111 105 97 91 83 76 68 62 56 50 46 43 39 35 35 34 30 27 25 23 22 21 21 22 21
205 141 85 68 69 75 76 93 92 31 322 237 206 162 239 270 250 117 110 217 232 237 234 225 210 204 201 198 198 199 201 204 205 205 200 194 190 188 186 182 181 182 181 182 184 184 185 185 183 180 178 175 171 166 161 159 161 161 158 158 155 151 150 147 146 143 139 141 138 130 126 120 113 107 98 91 84 76 69 62 55 48 45 42 39 37 34 31 29 26 25 24 22 21 21 20 19
130 92 61 47 26 33 43 50 81 50 277 221 188 181 192 274 270 156 179 221 216 225 236 221 199 200 204 203 201 200 199 200 201 202 199 191 188 188 186 183 183 184 184 185 186 185 186 185 182 181 178 176 172 165 161 159 161 163 162 162 162 157 155 153 151 148 145 147 145 137 133 127 120 114 105 99 88 77 66 57 50 44 41 39 35 32 29 26 25 23 22 20 17 17 17 16 15
119 88 85 72 354 14 22 3 63 193 259 210 188 187 184 232 264 194 229 258 228 213 217 207 190 195 201 203 204 203 202 201 199 199 196 189 188 188 186 185 185 186 186 186 186 185 186 185 183 182 178 175 172 167 164 163 163 166 166 165 165 162 158 158 158 155 152 153 153 145 141 137 131 123 112 101 86 71 59 49 44 40 36 33 29 27 24 22 21 19 16 14 13 12 12 10 8
112 108 117 124 288 8 4 312 122 226 258 243 189 181 200 235 250 243 254 266 246 224 226 215 194 192 197 199 201 203 202 202 199 198 196 190 189 189 186 187 187 187 186 186 186 186 185 184 183 181 176 173 173 170 168 168 166 167 169 168 168 166 163 163 164 162 158 158 158 152 148 143 135 124 111 94 77 65 53 45 40 35 31 28 26 23 21 19 17 15 13 10 9 7 5 3 1
163 143 145 166 173 175 249 241 249 253 268 285 184 162 234 272 268 242 246 252 239 255 263 232 206 199 198 197 198 199 200 200 199 198 198 193 191 190 187 187 188 187 187 186 186 186 184 182 181 180 177 174 174 173 171 170 169 169 171 172 173 172 169 168 168 168 165 162 160 155 149 142 132 119 106 87 74 63 51 44 37 31 29 26 24 21 19 17 14 11 8 5 2 1 0 359 357
185 156 145 169 164 173 213 204 222 251 276 289 228 159 202 217 255 248 254 277 274 286 272 225 207 204 197 193 193 194 196 198 198 199 199 196 192 190 188 188 188 188 188 187 186 185 184 182 180 180 178 176 176 175 174 173 172 172 175 177 178 178 176 173 171 170 168 163 160 156 148 139 129 117 104 86 74 65 49 43 37 31 30 26 23 20 16 14 10 5 3 360 359 358 357 356 353
215 133 121 186 185 180 221 210 184 179 280 281 211 218 221 207 253 261 285 312 337 341 208 183 186 189 186 186 189 192 194 195 197 199 199 198 194 191 190 188 188 189 190 188 186 185 184 182 181 182 182 179 177 177 176 177 176 177 179 181 181 180 180 178 174 169 167 164 160 157 150 140 132 121 106 90 78 67 52 45 40 33 31 26 22 18 13 9 5 1 358 356 355 353 351 351 348
178 145 180 204 174 164 213 275 52 101 262 263 193 243 287 303 267 234 132 292 319 43 175 174 178 178 179 185 188 191 194 194 198 199 200 199 195 192 191 189 189 191 191 189 187 186 185 184 182 183 185 182 179 179 179 180 181 181 182 183 183 183 181 180 178 173 170 167 163 159 154 147 139 127 111 97 82 68 57 49 42 35 31 24 18 13 7 3 359 356 354 352 351 349 347 346 342
131 182 204 164 69 101 147 257 344 43 260 266 205 236 258 247 264 263 126 229 252 244 209 181 179 179 183 188 190 193 194 195 199 200 201 200 196 193 192 192 192 192 192 190 188 188 187 187 186 185 187 185 183 183 183 183 185 186 186 185 184 184 182 181 180 178 176 172 168 163 160 156 146 133 119 104 86 73 61 49 41 33 26 19 12 7 1 357 354 352 352 351 349 346 344 342 338
131 181 191 138 125 219 139 174 236 206 252 276 257 250 239 209 219 216 200 215 222 224 212 193 190 190 192 192 191 192 193 194 198 200 201 200 197 195 193 194 194 193 193 191 189 190 189 190 190 189 190 189 186 186 185 186 188 189 189 187 186 185 183 184 183 182 181 176 173 170 166 163 152 139 126 112 94 77 60 47 38 28 20 13 5 360 356 352 352 351 351 350 348 344 341 338 335
57 76 174 143 139 180 166 173 189 174 232 273 301 299 251 215 194 189 200 210 208 205 202 203 203 199 196 193 190 191 194 196 198 199 200 199 196 196 195 195 194 192 193 193 192 193 192 192 193 192 193 191 189 189 188 189 189 190 191 188 187 187 186 188 188 186 184 179 177 176 171 166 156 145 136 122 103 79 59 42 30 20 12 5 357 353 351 350 350 350 349 348 345 342 338 335 332
153 151 184 188 145 131 180 213 157 138 193 247 277 280 265 228 180 189 197 206 206 200 198 205 207 203 199 195 193 194 196 198 199 199 200 198 196 197 196 196 194 193 194 194 194 195 194 194 195 194 194 193 192 192 192 192 191 191 193 192 191 191 190 191 191 189 187 184 182 180 174 169 162 155 147 133 114 88 61 35 19 8 360 354 350 348 347 347 347 346 345 343 340 338 335 333 330
176 185 190 187 175 149 188 245 207 154 198 197 201 270 268 230 167 204 199 206 208 199 199 205 205 203 200 198 198 198 198 199 199 199 199 198 196 197 196 195 195 195 195 196 197 197 196 196 196 196 196 196 196 195 194 194 193 193 195 196 195 194 194 195 194 192 190 189 187 183 178 176 171 167 160 150 140 110 56 18 359 349 346 344 343 345 346 345 344 341 340 338 335 334 332 329 327